Weather History for Homer, AK

Change the Weather History Date:

Sunday, November 25, 2012

  Actual Average Record
Temperature  
Mean Temperature 22 °F -  
Max Temperature 28 °F 34 °F 51 °F (1936)
Min Temperature 16 °F 22 °F -7 °F (1963)
Degree Days  
Heating Degree Days 43    
Moisture  
Dew Point 15 °F    
Average Humidity 77    
Maximum Humidity 84    
Minimum Humidity 65    
Precipitation  
Precipitation 0.00 in - - ()
Sea Level Pressure  
Sea Level Pressure 30.08 in    
Wind  
Wind Speed 3 mph (NE)    
Max Wind Speed 7 mph    
Max Gust Speed -    
Visibility 10 miles    
Events      
Averages and records for this station are not official NWS values.
T = Trace of Precipitation, MM = Missing Value Source: NWS Daily Summary

Daily Weather History Graph

Daily Weather History Graph

Search for Another Location

Airport:

Trip Planner

Search our weather history database for the weather conditions in past years. The results will help you decide how hot, cold, wet, or windy it might be!

Date:

Astronomy

Nov. 25, 2012 Rise Set
Actual Time 9:27 AM AKST 4:18 PM AKST
Civil Twilight 8:35 AM AKST 5:10 PM AKST
Nautical Twilight 7:42 AM AKST 6:03 PM AKST
Astronomical Twilight 6:52 AM AKST 6:53 PM AKST
Moon 3:06 PM AKST (11/25) 6:21 AM AKST (11/25)
Length of Visible Light 8h 35m
Length of Day
6h 51m
Waxing Gibbous, 93% of the Moon is Illuminated
Nov 25
Waxing Gibbous
Nov 28
Full
Dec 6
Last Quarter
Dec 12
New
Dec 19
First Quarter

Hourly Weather History & Observations

Time (AKST) Temp. Windchill Dew Point Humidity Pressure Visibility Wind Dir Wind Speed Gust Speed Precip Events Conditions
12:53 AM 24.1 °F - 14.0 °F 65% 30.00 in 10.0 mi Calm Calm - N/A   Scattered Clouds
1:53 AM 21.0 °F 14.6 °F 14.0 °F 74% 30.01 in 10.0 mi NE 4.6 mph - N/A   Clear
3:53 AM 19.0 °F - 12.9 °F 77% 30.01 in 10.0 mi Calm Calm - N/A   Clear
4:53 AM 17.1 °F - 12.9 °F 84% 30.01 in 10.0 mi Calm Calm - N/A   Clear
5:53 AM 17.1 °F 11.7 °F 12.9 °F 84% 30.02 in 10.0 mi NNE 3.5 mph - N/A   Partly Cloudy
6:53 AM 16.0 °F 8.8 °F 12.0 °F 84% 30.03 in 10.0 mi NNE 4.6 mph - N/A   Clear
7:53 AM 19.0 °F - 14.0 °F 81% 30.04 in 10.0 mi Calm Calm - N/A   Clear
8:53 AM 17.1 °F 11.7 °F 12.0 °F 81% 30.06 in 10.0 mi NNE 3.5 mph - N/A   Clear
9:53 AM 17.1 °F 11.7 °F 12.9 °F 84% 30.06 in 10.0 mi NE 3.5 mph - N/A   Clear
10:53 AM 21.9 °F 15.7 °F 17.1 °F 82% 30.07 in 10.0 mi NE 4.6 mph - N/A   Partly Cloudy
11:53 AM 25.0 °F 18.1 °F 18.0 °F 75% 30.08 in 10.0 mi ENE 5.8 mph - N/A   Partly Cloudy
12:53 PM 28.0 °F 22.8 °F 19.9 °F 72% 30.08 in 10.0 mi NE 4.6 mph - N/A   Clear
1:53 PM 28.0 °F 22.8 °F 19.0 °F 69% 30.09 in 10.0 mi ENE 4.6 mph - N/A   Clear
2:53 PM 27.0 °F 21.6 °F 18.0 °F 69% 30.09 in 10.0 mi ENE 4.6 mph - N/A   Clear
3:53 PM 26.1 °F 20.5 °F 18.0 °F 71% 30.09 in 10.0 mi ENE 4.6 mph - N/A   Clear
4:53 PM 23.0 °F 14.7 °F 16.0 °F 74% 30.10 in 10.0 mi ENE 6.9 mph - N/A   Clear
5:53 PM 21.9 °F 15.7 °F 14.0 °F 72% 30.11 in 10.0 mi ENE 4.6 mph - N/A   Partly Cloudy
6:53 PM 21.9 °F 17.2 °F 14.0 °F 72% 30.13 in 10.0 mi NE 3.5 mph - N/A   Clear
7:53 PM 19.0 °F 13.9 °F 12.9 °F 77% 30.14 in 10.0 mi NE 3.5 mph - N/A   Clear
8:53 PM 18.0 °F 12.7 °F 12.9 °F 81% 30.15 in 10.0 mi NNE 3.5 mph - N/A   Clear
9:53 PM 19.9 °F 13.4 °F 12.9 °F 74% 30.16 in 10.0 mi ENE 4.6 mph - N/A   Clear
10:53 PM 17.1 °F 8.7 °F 12.0 °F 81% 30.18 in 10.0 mi NE 5.8 mph - N/A   Clear
11:53 PM 19.0 °F 12.3 °F 12.9 °F 77% 30.19 in 10.0 mi NNE 4.6 mph - N/A   Clear